Location: Baudendistel School
(37.7062°N, 90.0137°W)
Time: 12:53:42
(UTC+00:00)

Daily predictions for brighter satellites

Satellite Brightness Start Highest point End
(mag) Time Altitude Azimuth Time Altitude Azimuth Time Altitude Azimuth
Cosmos 1933 4.4 12:01:33 17° NW 12:03:18 23° W 12:06:19 10° SW
Meteor 2-3 Rocket 4.1 12:00:19 10° SSW 12:05:44 42° WNW 12:11:07 10° N
DMSP B5D1-3 4.5 12:03:06 10° SSE 12:08:12 85° WSW 12:13:21 10° NNW
USA 267 4.4 12:03:01 10° NE 12:09:16 46° SE 12:15:28 10° SSW
Cosmos 1814 Rocket 4.2 12:04:10 10° SSW 12:09:20 78° ESE 12:14:37 10° NNE
Meteor 1-26 Rocket 4.2 12:04:09 10° N 12:09:43 89° WSW 12:15:25 10° S
Cosmos 2219 Rocket 4.2 12:05:25 10° N 12:09:54 23° ENE 12:14:18 10° ESE
NOSS 2-1 (C) 3.6 12:06:21 12° NW 12:09:55 66° WSW 12:15:15 10° SSE
Cosmos 2322 Rocket 3.2 12:06:45 10° N 12:12:13 46° ENE 12:17:38 10° SE
CBERS-1 3.9 12:08:31 10° N 12:13:36 73° WNW 12:18:39 10° SSW
COSMO-SKYMED 1 3.3 12:10:48 10° SSW 12:14:27 31° W 12:18:07 10° NW
Cosmos 2058 Rocket 3.0 12:11:18 10° NNW 12:15:44 71° W 12:20:05 10° S
Cosmos-2242 2.9 12:13:23 10° N 12:17:36 73° W 12:21:46 10° S
ATLAS 2AS CENTAUR R/B 3.9 12:11:02 10° S 12:17:48 49° ESE 12:24:26 10° NE
CZ-3C R/B 4.1 12:15:01 10° SW 12:20:38 30° SSE 12:48:29 10° ESE
COSMOS 2406 4.1 12:17:01 10° WSW 12:21:43 26° WNW 12:26:27 10° N
Thor Agena Rocket 3.5 12:18:48 10° NNE 12:23:53 86° WNW 12:28:53 10° SSW
SMAP 3.1 12:19:51 10° NNE 12:24:32 90° W 12:29:10 10° SSW
IRIDIUM 106 4.3 12:21:20 10° S 12:26:32 78° W 12:31:46 10° N
Landsat 7 3.9 12:26:04 10° NNE 12:30:44 83° ESE 12:35:22 10° S
Cosmos 2082 Rocket 3.9 12:34:14 10° WNW 12:35:50 11° NW 12:37:27 10° NNW
COSMOS 2455 3.8 12:30:56 10° NW 12:36:00 29° WSW 12:41:03 10° SSW
CENTAUR R/B 4.1 23:08:17 10° W 23:12:56 26° NW 23:18:30 10° NNE
Cosmos 2208 Rocket 4.4 23:10:23 10° N 23:15:15 40° ENE 23:20:06 10° SE
SL-16 R/B 3.4 23:11:20 10° N 23:17:22 53° WNW 23:23:20 10° SW
NOSS 2-2 (E) 3.9 23:15:03 10° SW 23:18:37 43° NW 23:21:37 10° NNE
ATLAS CENTAUR R/B 2.3 23:16:33 10° N 23:18:41 16° NE 23:20:47 10° E
Cosmos 1743 2.9 23:17:56 10° NNE 23:20:56 33° E 23:23:53 10° SE
BlueWalker 3 3.1 23:18:19 10° NNW 23:21:15 22° NNE 23:24:05 10° E
Cosmos 1697 Rocket 3.4 23:16:18 10° SSE 23:21:18 35° ESE 23:26:19 10° NE
Cosmos 1484 Rocket 3.8 23:18:18 10° S 23:21:41 45° W 23:25:05 10° NNW
Cosmos 1626 Rocket 3.4 23:19:54 10° N 23:24:15 79° E 23:28:31 10° S
SMAP 3.0 23:20:52 10° SSE 23:25:29 73° ENE 23:30:09 10° N
Cosmos 1606 Rocket 4.3 23:23:24 10° SSE 23:27:15 31° E 23:31:08 10° NNE
Cosmos 1461 2.8 23:24:28 10° SSW 23:28:14 59° ESE 23:32:06 10° NE
Gbstr 26 Del rocket 3.0 23:24:14 10° SW 23:28:25 56° SE 23:31:38 13° ENE
Radarsat 4.5 23:23:22 10° SSE 23:28:29 70° ENE 23:33:39 10° N
SAR-Lupe-3 4.4 23:26:13 10° NNE 23:28:32 32° E 23:30:51 10° SSE
Cosmos 2151 3.3 23:25:26 10° N 23:29:22 40° E 23:33:16 10° SSE
Lacrosse 4 Rocket 4.2 23:29:48 10° NW 23:30:16 10° NW 23:30:43 10° NW
Landsat 7 3.7 23:26:58 10° SSE 23:31:34 64° ENE 23:36:10 10° N
IRS-1C 4.1 23:26:39 10° SSE 23:31:53 64° ENE 23:37:09 10° N
Meteor 1-20 Rocket 4.4 23:29:00 10° N 23:34:15 46° ENE 23:39:29 10° SSE
Cosmos 1544 Rocket 4.3 23:31:50 10° SSW 23:36:07 57° W 23:40:28 10° N
Thor Agena Rocket 4.0 23:33:00 10° S 23:38:12 68° WSW 23:43:24 10° NNW
Cosmos 1733 2.6 23:39:35 10° NNW 23:41:24 44° W 23:43:12 10° S
SAR-Lupe-4 3.4 23:38:42 10° SSE 23:42:14 80° ENE 23:45:48 10° N
Okean 1-7 Rocket 3.9 23:38:13 10° N 23:42:22 40° ENE 23:46:28 10° SSE
SAR-Lupe-1 4.0 23:46:11 10° SSE 23:49:45 86° ENE 23:53:22 10° NNW
BREEZE-M DEB (TANK) 3.3 23:50:53 10° NW 23:51:56 14° NNW 23:52:22 13° N
Cosmos 1503 Rocket 4.1 23:47:39 10° SSW 23:52:55 81° WNW 23:58:10 10° NNE
Cosmos 1726 Rocket 3.9 23:49:12 10° SSE 23:53:37 46° E 23:58:03 10° NNE
